Wind_Speed
25 26 28 28 26 26 25 25 25 24 24 24 23 23 23 21 22 22 18 15 14 12 11 10 9 9 9 9 9 9 11 12 15 16 15 16 16 18 15 18 19 19 20
30 29 30 30 28 26 25 23 22 24 25 25 24 24 23 22 20 19 17 14 12 11 9 9 9 7 7 9 9 9 10 12 14 17 17 15 16 15 17 16 18 19 20
30 30 30 31 29 26 24 22 20 23 24 24 23 21 21 19 18 17 16 13 11 10 10 9 9 8 7 7 8 10 10 12 15 18 17 16 16 15 16 16 16 17 18
30 31 32 32 28 25 23 21 20 22 23 23 22 21 19 18 17 16 14 12 10 10 9 8 7 6 6 8 8 10 12 14 13 15 16 16 15 13 12 15 15 17 17
30 31 32 32 29 26 24 21 21 20 22 22 22 20 19 18 17 14 12 10 9 8 7 6 6 6 5 6 8 11 12 13 13 14 13 14 15 17 13 8 14 15 18
29 29 30 31 29 27 24 22 20 19 19 20 19 19 17 16 13 12 11 9 8 7 8 7 6 5 5 6 7 10 13 13 13 10 9 9 11 19 17 7 9 14 16
29 29 27 27 26 25 23 22 21 20 19 19 18 18 16 15 13 11 9 7 7 7 8 7 6 5 5 6 8 9 12 11 10 10 10 15 14 16 15 17 10 15 17
29 28 26 25 24 23 22 21 20 19 19 19 19 15 15 13 12 10 8 6 5 8 8 7 6 6 6 6 8 10 11 12 9 10 9 12 17 18 16 17 14 13 16
27 27 25 24 24 22 21 20 18 18 18 18 18 17 14 12 11 9 9 7 6 7 7 5 6 6 5 5 6 11 15 15 11 10 15 14 18 17 21 26 17 16 15
24 25 25 24 23 22 19 19 17 18 18 18 16 15 14 12 11 10 9 8 8 6 6 6 5 4 5 5 5 7 10 13 11 10 12 17 14 17 16 23 23 20 18
25 24 24 24 23 22 20 18 17 18 16 13 14 15 14 10 11 12 12 11 9 8 7 6 5 5 5 4 5 7 7 7 8 8 11 17 15 16 16 23 22 21 20
26 24 24 23 22 21 20 19 18 16 14 12 15 16 13 10 10 10 12 14 10 9 8 6 5 6 5 5 4 4 4 6 8 7 6 12 16 16 20 21 23 22 21
24 21 23 23 23 21 19 18 17 14 11 12 15 16 14 12 10 7 6 10 11 10 7 5 4 3 4 5 7 4 3 5 6 9 10 8 9 16 19 23 25 22 19
27 23 21 21 22 19 18 18 14 12 10 10 11 13 15 14 11 10 7 8 10 7 6 4 3 4 4 6 5 4 3 3 2 9 10 7 9 15 18 21 29 27 23
26 23 21 18 21 19 19 18 14 11 9 8 9 12 13 13 12 12 9 8 7 7 4 3 2 1 2 3 3 4 4 3 3 4 9 10 13 15 18 20 24 27 29
25 23 21 17 16 19 19 17 15 11 8 9 9 12 11 13 12 13 8 7 6 5 6 2 0 2 6 7 4 5 4 3 2 4 7 11 11 15 17 20 24 28 29
20 22 20 18 15 17 17 15 13 11 9 12 8 10 12 13 11 14 10 6 8 5 3 1 2 4 4 8 7 2 2 3 3 4 3 6 10 12 14 16 22 29 30
19 21 19 17 16 14 15 14 13 12 10 12 12 11 12 14 13 14 12 8 6 5 2 2 5 4 8 5 5 3 3 3 2 3 1 2 6 8 12 11 16 27 32
19 17 19 18 16 12 12 13 12 10 10 13 13 13 12 14 15 15 13 9 7 4 2 1 3 3 6 4 1 4 5 3 3 4 4 3 4 6 8 7 11 18 27
19 18 19 18 15 12 11 13 13 14 12 13 13 13 14 15 17 17 15 11 8 6 4 3 5 2 4 1 3 7 5 4 6 4 3 5 4 5 6 7 10 15 21
20 20 19 17 15 15 14 14 14 16 14 15 15 13 13 16 20 20 18 15 10 8 6 6 7 5 3 4 3 5 8 5 5 4 3 4 3 2 7 7 7 12 19
17 16 17 17 17 16 16 12 11 9 13 13 13 14 14 16 20 21 20 16 13 10 8 5 4 4 1 3 1 5 5 7 9 8 6 7 4 4 4 6 8 11 15
19 18 18 16 17 17 15 14 15 15 15 15 16 16 14 16 20 24 23 18 15 12 10 7 4 2 3 2 3 4 4 4 7 14 10 9 7 7 8 8 7 8 14
18 19 16 15 15 16 17 16 18 17 16 16 14 11 14 16 21 25 23 20 16 14 11 7 6 4 2 3 4 5 3 5 2 3 11 12 13 11 11 12 9 9 10
21 20 17 15 16 17 18 19 19 18 15 14 13 12 15 18 22 27 25 21 16 14 11 10 9 7 5 4 4 6 5 5 6 8 6 16 18 15 14 14 12 13 14
23 24 21 19 16 18 19 19 18 17 16 17 16 16 16 19 21 26 27 23 17 16 12 13 10 9 8 7 5 5 6 4 7 6 8 11 20 20 19 18 19 18 18
Wind_Direction
163 160 162 164 163 155 148 144 145 146 147 149 149 148 148 139 140 140 142 141 134 127 123 122 125 125 127 127 131 141 140 136 136 133 126 122 122 129 131 132 130 128 131
156 161 166 169 169 165 158 153 153 151 150 151 152 151 151 145 145 146 146 147 143 134 133 126 119 123 132 136 144 154 156 147 144 143 136 134 131 131 134 129 124 127 129
159 159 164 172 172 171 168 166 163 163 161 159 159 159 158 156 152 152 151 154 152 147 143 134 123 121 134 141 154 160 157 153 149 142 138 142 133 135 135 129 127 128 124
160 159 163 167 172 173 172 168 163 165 169 169 167 167 168 169 164 162 161 166 162 158 159 158 152 141 146 154 157 164 162 161 153 152 144 140 128 124 122 139 138 133 135
164 161 164 170 172 171 170 168 164 162 165 170 171 173 175 174 170 171 176 180 173 172 173 177 181 177 172 173 173 170 169 167 169 154 143 142 140 137 130 142 149 143 137
167 165 165 171 176 178 177 175 171 166 164 167 168 172 174 177 179 184 184 188 198 197 199 196 209 202 194 186 185 187 186 184 172 169 153 154 161 157 152 161 174 153 144
167 167 168 171 173 176 176 173 171 170 169 172 172 176 181 186 190 195 201 201 213 216 218 212 216 199 193 189 191 195 192 194 185 209 204 211 203 177 176 186 192 168 160
169 168 169 171 173 176 177 176 174 177 177 176 177 176 194 187 202 195 199 205 223 227 224 214 210 207 197 194 197 187 192 188 230 230 224 210 203 193 186 191 191 175 168
175 171 173 173 175 179 177 177 177 178 177 181 176 192 191 202 204 215 219 228 240 232 222 217 215 212 207 207 205 204 203 219 247 261 236 232 222 211 198 195 191 182 171
179 177 180 177 178 179 178 178 184 185 184 187 193 203 209 207 216 223 231 237 233 229 213 212 215 220 214 226 221 223 232 245 257 241 246 208 219 210 213 211 188 188 177
183 185 184 184 184 184 185 188 190 191 195 203 217 210 198 211 236 244 246 233 225 218 212 215 226 229 227 238 250 243 235 242 244 237 224 212 234 222 201 175 188 193 186
181 187 189 190 189 191 191 194 198 201 202 211 215 213 214 225 242 247 242 227 225 218 210 218 224 224 248 253 250 268 252 224 229 229 213 220 231 217 195 193 191 190 190
182 185 192 194 192 196 196 199 204 213 225 227 229 227 226 232 235 242 214 207 220 226 219 209 243 252 255 277 251 235 258 215 206 222 236 235 212 206 200 196 195 187 188
189 188 188 198 201 203 206 207 221 234 246 247 241 223 226 221 217 216 206 213 211 207 205 202 244 273 295 285 273 252 221 235 120 210 225 232 223 214 209 204 203 206 200
193 191 192 199 206 211 214 217 240 246 251 245 220 195 199 216 221 219 189 201 213 237 216 198 256 302 276 275 270 230 218 226 258 261 219 234 239 230 217 210 203 204 210
200 196 194 196 206 215 221 230 236 234 244 229 213 206 217 219 219 211 206 218 215 191 153 128 344 327 280 279 305 268 222 177 146 191 223 241 238 233 223 219 211 206 206
202 201 198 197 201 213 220 231 230 227 236 220 219 213 214 216 209 197 200 215 191 174 159 106 296 323 293 277 260 277 182 177 177 184 260 241 229 217 216 214 215 210 208
203 201 202 202 208 216 221 222 220 228 234 227 221 218 218 213 214 203 205 214 214 187 89 332 300 299 303 305 270 211 168 185 196 181 345 206 206 208 208 217 214 210 209
204 206 206 206 208 215 221 220 227 233 231 229 221 223 224 221 212 211 212 210 202 190 175 57 348 278 336 300 191 189 198 189 192 160 62 94 186 194 205 207 195 196 202
207 207 210 210 210 217 215 212 226 234 233 232 227 230 226 221 223 221 212 222 216 218 232 281 295 270 326 313 192 210 231 205 169 154 123 90 117 171 189 195 192 191 200
205 210 213 210 204 208 204 207 222 235 239 242 237 229 216 223 222 217 208 215 226 235 240 276 253 291 351 32 186 219 215 205 203 218 234 202 145 129 194 189 197 193 197
201 206 212 212 210 212 216 222 234 254 250 253 244 232 233 228 216 214 209 218 228 238 234 255 276 285 271 322 271 183 189 219 237 246 245 206 183 200 176 179 205 211 206
210 210 213 218 221 225 230 230 238 240 243 238 231 232 227 218 212 210 210 217 217 227 225 245 273 276 281 280 317 228 181 202 239 241 228 215 200 221 214 203 214 216 227
215 219 218 223 231 236 236 239 246 253 257 247 239 241 222 217 213 208 210 214 219 223 216 240 234 254 290 314 264 244 252 247 309 264 236 225 222 228 227 227 220 216 212
226 224 222 224 232 236 236 240 248 253 257 248 234 234 223 217 215 210 210 213 220 224 226 234 247 261 257 276 303 287 250 255 274 255 268 232 235 239 232 232 228 228 225
237 232 229 230 235 233 236 240 248 251 248 236 231 229 225 218 213 207 212 216 225 220 231 238 245 246 260 258 264 284 308 305 320 285 271 260 236 238 240 238 236 238 244
Height
1528 1531 1534 1538 1541 1543 1545 1547 1548 1551 1553 1555 1557 1558 1559 1560 1561 1562 1564 1565 1567 1567 1568 1569 1570 1571 1572 1573 1574 1575 1576 1576 1576 1577 1578 1579 1580 1581 1582 1582 1581 1582 1583
1526 1531 1535 1539 1541 1544 1546 1548 1550 1553 1555 1557 1559 1561 1562 1563 1564 1565 1566 1568 1568 1569 1570 1570 1572 1572 1573 1575 1576 1577 1577 1578 1579 1580 1580 1581 1582 1583 1585 1586 1586 1585 1586
1527 1530 1535 1540 1543 1545 1547 1549 1552 1554 1556 1558 1561 1563 1564 1565 1566 1567 1568 1569 1570 1570 1571 1572 1573 1574 1575 1576 1578 1578 1579 1580 1580 1581 1582 1583 1584 1585 1586 1588 1589 1589 1589
1528 1531 1536 1541 1544 1547 1549 1550 1553 1555 1557 1559 1561 1563 1565 1566 1567 1568 1569 1570 1571 1572 1573 1574 1575 1575 1576 1577 1579 1579 1580 1581 1583 1583 1583 1584 1586 1588 1589 1591 1591 1593 1592
1529 1533 1537 1541 1545 1548 1550 1552 1554 1555 1558 1560 1562 1564 1566 1567 1568 1569 1571 1572 1573 1573 1574 1575 1576 1576 1577 1578 1579 1580 1581 1582 1584 1584 1584 1585 1587 1589 1589 1594 1594 1595 1594
1529 1534 1537 1542 1546 1549 1551 1553 1555 1557 1559 1561 1563 1565 1567 1568 1569 1570 1572 1573 1574 1574 1574 1575 1576 1576 1577 1578 1579 1581 1582 1583 1585 1587 1587 1587 1590 1591 1592 1595 1597 1596 1597
1530 1534 1538 1541 1546 1550 1552 1554 1556 1558 1560 1562 1564 1565 1567 1569 1570 1571 1573 1573 1574 1574 1574 1575 1576 1577 1577 1578 1579 1580 1581 1584 1585 1587 1588 1587 1591 1592 1593 1596 1598 1598 1598
1530 1534 1538 1542 1545 1549 1552 1555 1557 1559 1560 1563 1564 1566 1568 1570 1571 1572 1572 1573 1573 1573 1574 1575 1576 1576 1576 1577 1578 1580 1582 1583 1584 1585 1586 1587 1589 1591 1593 1595 1599 1599 1600
1532 1535 1538 1541 1545 1548 1552 1555 1558 1559 1561 1563 1565 1566 1568 1570 1571 1571 1572 1573 1573 1573 1574 1575 1575 1576 1575 1577 1578 1579 1581 1582 1583 1583 1584 1586 1587 1589 1590 1592 1597 1600 1601
1534 1536 1539 1541 1545 1548 1552 1555 1558 1559 1561 1563 1565 1566 1567 1569 1570 1570 1571 1572 1573 1573 1574 1574 1575 1576 1576 1576 1577 1577 1578 1580 1580 1581 1581 1583 1585 1587 1588 1589 1596 1598 1603
1533 1536 1539 1542 1544 1547 1551 1554 1556 1559 1561 1562 1564 1565 1567 1569 1569 1570 1571 1572 1572 1573 1573 1573 1575 1575 1575 1575 1576 1576 1576 1578 1578 1578 1580 1581 1583 1585 1587 1590 1595 1599 1601
1532 1535 1539 1542 1545 1548 1550 1553 1555 1558 1560 1562 1563 1564 1567 1568 1569 1569 1569 1570 1572 1572 1572 1572 1573 1573 1574 1574 1575 1574 1574 1576 1577 1577 1577 1579 1581 1583 1586 1590 1593 1596 1600
1532 1535 1538 1542 1544 1548 1550 1552 1554 1556 1559 1561 1562 1564 1566 1567 1568 1568 1568 1570 1571 1571 1571 1571 1573 1573 1573 1574 1573 1573 1573 1574 1576 1576 1577 1578 1579 1581 1584 1588 1592 1595 1598
1531 1535 1538 1541 1544 1547 1550 1552 1553 1555 1557 1559 1560 1562 1563 1565 1567 1568 1569 1570 1570 1571 1571 1570 1571 1571 1572 1571 1571 1572 1572 1572 1573 1574 1576 1576 1578 1581 1582 1585 1588 1593 1597
1531 1534 1538 1540 1543 1546 1548 1551 1552 1554 1556 1558 1559 1560 1563 1564 1567 1567 1568 1569 1570 1570 1570 1569 1569 1570 1570 1570 1571 1571 1571 1571 1572 1573 1574 1575 1576 1578 1580 1582 1586 1590 1594
1532 1534 1537 1539 1542 1545 1547 1550 1551 1554 1556 1557 1558 1560 1562 1565 1566 1568 1568 1569 1570 1570 1569 1568 1568 1569 1569 1569 1569 1570 1570 1570 1570 1572 1572 1573 1574 1576 1577 1580 1582 1586 1590
1532 1534 1536 1540 1542 1543 1545 1549 1550 1553 1554 1556 1558 1559 1561 1563 1565 1567 1568 1569 1568 1569 1568 1568 1568 1569 1568 1568 1569 1568 1569 1570 1570 1571 1572 1571 1572 1573 1575 1578 1580 1584 1587
1531 1533 1536 1539 1540 1541 1544 1547 1550 1552 1553 1555 1557 1558 1559 1562 1564 1566 1568 1568 1567 1567 1567 1568 1568 1567 1568 1566 1565 1566 1567 1569 1570 1571 1570 1569 1570 1572 1574 1576 1577 1580 1585
1530 1532 1535 1537 1538 1540 1542 1546 1549 1550 1551 1553 1555 1557 1558 1560 1562 1564 1567 1567 1566 1566 1567 1567 1567 1566 1566 1566 1565 1566 1567 1569 1570 1570 1569 1569 1570 1571 1573 1575 1576 1578 1583
1530 1532 1534 1535 1538 1540 1542 1545 1547 1548 1550 1551 1553 1554 1557 1559 1558 1563 1565 1566 1565 1565 1566 1566 1566 1567 1566 1565 1566 1566 1566 1568 1569 1570 1570 1570 1571 1572 1574 1575 1576 1578 1582
1530 1531 1533 1536 1538 1540 1541 1543 1545 1545 1548 1549 1550 1552 1554 1555 1557 1560 1562 1563 1564 1564 1565 1565 1565 1565 1564 1564 1564 1564 1565 1566 1567 1569 1570 1571 1572 1573 1574 1576 1578 1580 1584
1529 1530 1532 1535 1537 1539 1541 1543 1544 1544 1546 1547 1548 1549 1551 1552 1554 1557 1560 1562 1563 1563 1564 1565 1564 1563 1563 1563 1563 1563 1564 1567 1567 1569 1570 1571 1572 1573 1575 1577 1579 1581 1583
1528 1530 1532 1534 1536 1539 1540 1540 1541 1543 1543 1544 1545 1546 1548 1549 1552 1554 1558 1560 1561 1562 1562 1563 1563 1562 1562 1562 1562 1562 1563 1564 1566 1567 1568 1570 1571 1573 1575 1576 1578 1579 1581
1526 1529 1531 1533 1535 1537 1539 1539 1540 1541 1541 1542 1544 1545 1546 1547 1550 1552 1555 1558 1560 1561 1561 1562 1562 1562 1562 1562 1562 1562 1563 1565 1565 1566 1566 1567 1569 1571 1573 1575 1576 1577 1579
1526 1528 1530 1533 1534 1535 1536 1537 1538 1538 1540 1541 1542 1542 1543 1545 1547 1549 1553 1555 1557 1559 1560 1561 1562 1562 1562 1562 1562 1562 1562 1563 1563 1564 1564 1565 1567 1568 1571 1572 1575 1576 1578
1526 1528 1530 1532 1532 1533 1533 1535 1535 1536 1538 1539 1539 1540 1541 1543 1545 1547 1551 1553 1555 1556 1558 1560 1561 1561 1562 1562 1562 1562 1562 1563 1563 1563 1563 1562 1564 1566 1568 1569 1571 1573 1575